CAPE
0 0 0 0 0 0 0 0 0 0 0 0 0 0 0 0 0 0 0 0 0 0 0 0 0 0 0 0 0 0 0 0 0 0 0 0 0 0 0 0 0 0 0
0 0 0 0 0 0 0 0 0 0 0 0 0 0 0 0 0 0 0 0 0 0 0 0 0 0 0 0 0 0 0 0 0 0 0 0 0 0 0 0 0 0 0
0 0 0 0 0 0 0 0 0 0 0 0 0 0 0 0 0 0 0 0 0 0 0 0 0 0 0 0 0 0 0 0 0 0 0 0 0 0 0 0 0 0 0
0 0 0 0 0 0 0 0 0 0 0 0 0 0 0 0 0 0 0 0 0 0 0 0 0 0 0 0 0 0 0 0 0 0 0 0 0 0 0 0 0 0 0
0 0 0 0 0 0 0 0 0 0 0 0 0 0 0 0 0 0 0 0 0 0 0 0 0 0 0 0 0 0 0 0 0 0 0 0 0 0 0 0 0 0 0
0 0 0 0 0 0 0 0 0 0 0 0 0 0 0 0 0 0 0 0 0 0 0 0 0 0 0 0 0 0 0 0 0 0 0 0 0 0 0 0 0 0 0
0 0 0 0 0 0 0 1 0 1 0 0 0 0 0 0 0 0 0 0 0 0 0 0 0 0 0 0 0 0 0 0 0 0 0 0 0 0 0 0 0 0 0
0 0 0 0 0 0 0 1 1 0 0 1 0 0 0 0 0 0 0 0 0 0 0 0 0 0 0 0 0 0 0 0 0 0 0 0 0 0 0 0 0 0 0
0 0 1 2 2 1 1 1 1 1 0 0 0 0 0 0 0 0 0 0 0 0 0 0 0 0 0 0 0 0 0 0 0 0 0 0 0 0 0 0 0 0 0
0 2 2 1 1 0 0 0 1 0 0 0 0 0 0 0 0 0 0 0 0 0 0 0 0 0 0 0 0 0 0 0 0 0 0 0 0 0 0 0 0 0 0
1 2 2 0 0 0 0 0 0 0 0 0 0 0 0 0 0 0 0 0 0 0 0 0 0 0 0 0 0 0 0 0 0 0 0 0 0 0 0 0 0 0 0
2 2 0 1 0 0 0 0 0 0 0 0 0 0 0 0 0 0 0 0 0 0 0 0 0 0 0 0 0 0 0 0 0 0 0 0 0 0 0 0 0 0 0
1 1 1 1 1 0 0 0 0 0 0 0 0 0 0 0 0 0 0 0 0 0 0 0 0 0 0 0 0 0 0 0 0 0 0 0 0 0 0 0 0 0 0
1 0 1 0 0 0 0 0 0 0 0 0 0 0 0 0 0 0 0 1 0 0 0 0 0 0 0 0 0 0 0 0 0 0 0 0 0 0 0 0 0 0 0
0 1 0 0 0 0 0 0 0 0 0 0 0 0 0 0 0 0 0 0 0 0 0 0 0 0 0 0 0 0 0 0 0 0 0 0 0 0 0 0 0 0 0
1 1 0 0 0 0 0 0 0 0 0 0 0 0 0 0 0 0 0 0 0 0 0 0 0 0 0 0 0 0 0 0 0 0 0 0 0 0 0 0 0 0 0
0 0 0 0 0 0 0 0 0 0 0 0 0 0 0 0 0 0 0 0 0 0 0 0 0 0 0 0 0 0 0 0 0 0 0 0 0 0 0 0 0 0 0
0 0 0 0 0 0 0 0 0 0 0 0 0 0 0 0 1 1 2 0 0 0 0 0 0 0 0 0 0 0 0 0 0 0 0 0 0 0 0 0 0 0 0
0 0 0 0 0 0 0 0 0 0 0 0 0 0 0 0 2 0 0 0 0 0 0 0 0 0 0 0 0 0 0 0 0 0 0 0 0 0 0 0 0 0 0
0 0 0 0 0 0 0 0 0 0 0 0 0 0 0 0 0 0 0 0 0 0 0 0 0 0 0 0 0 0 0 0 0 0 0 0 0 0 0 0 0 0 0
0 0 0 0 0 0 0 0 0 0 0 0 0 0 0 0 0 0 0 0 0 0 0 0 0 0 0 0 0 0 0 0 0 0 0 0 0 0 0 0 0 0 0
0 0 0 0 0 0 0 0 0 0 0 0 0 0 0 0 0 0 0 0 0 0 0 0 0 0 0 0 0 0 0 0 0 0 0 0 0 0 0 0 0 0 0
0 0 0 0 0 0 0 0 0 0 0 0 0 0 0 0 0 0 0 0 0 0 0 0 0 0 0 0 0 0 0 0 0 0 0 0 0 0 0 0 0 0 0
0 0 0 0 0 0 0 0 0 0 0 0 0 0 0 0 0 0 0 0 0 0 0 0 0 0 0 0 0 0 0 0 0 0 0 0 0 0 0 0 0 0 0
0 0 0 0 0 0 0 0 0 0 0 0 0 0 0 0 0 0 0 0 0 0 0 0 0 0 0 0 0 0 0 0 0 0 0 0 0 0 0 0 0 0 0
0 0 0 0 0 0 0 0 0 0 0 0 0 0 0 0 0 0 0 0 0 0 0 0 0 0 0 0 0 0 0 0 0 0 0 0 0 0 0 0 0 0 0
CIN
0 0 0 0 0 0 0 0 0 0 0 0 0 0 0 0 0 0 0 0 0 0 0 0 0 0 0 0 0 0 0 0 0 0 0 0 0 0 0 0 0 0 0
0 0 0 0 0 0 0 0 0 0 0 0 0 0 0 0 0 0 0 0 0 0 0 0 0 0 0 0 0 0 0 0 0 0 0 0 0 0 0 0 0 0 0
0 0 0 0 0 0 0 0 0 0 0 0 0 0 0 0 0 0 0 0 0 0 0 0 0 0 0 0 0 0 0 0 0 0 0 0 0 0 0 0 0 0 0
0 0 0 0 0 0 0 0 0 0 0 0 0 0 0 0 0 0 0 0 0 0 0 0 0 0 0 0 0 0 0 0 0 0 0 0 0 0 0 0 0 0 0
0 0 0 0 0 0 0 0 0 0 0 0 0 0 0 0 0 0 0 0 0 0 0 0 0 0 0 0 0 0 0 0 0 0 0 0 0 0 0 0 0 0 0
0 0 0 0 0 0 0 0 0 0 0 0 0 0 0 0 0 0 0 0 0 0 0 0 0 0 0 0 0 0 0 0 0 0 0 0 0 0 0 0 0 0 0
0 0 0 0 0 0 0 0 0 0 0 0 0 0 0 0 0 0 0 0 0 0 0 0 0 0 0 0 0 0 0 0 0 0 0 0 0 0 0 0 0 0 0
0 0 0 0 0 0 0 0 0 0 0 0 0 0 0 0 0 0 0 0 0 0 0 0 0 0 0 0 0 0 0 0 0 0 0 0 0 0 0 0 0 0 0
0 0 0 0 0 0 0 0 0 0 0 0 0 0 0 0 0 0 0 0 0 0 0 0 0 0 0 0 0 0 0 0 -1 0 -1 -1 0 0 0 0 0 0 0
0 0 0 0 0 0 0 0 0 0 0 0 0 0 0 0 0 0 0 0 0 0 0 0 0 0 0 0 0 0 0 0 0 0 0 0 0 0 0 0 0 0 0
0 0 0 0 0 0 0 0 0 0 0 0 0 0 0 0 0 0 0 0 0 0 0 0 0 0 0 0 0 0 0 0 0 0 0 0 0 0 0 0 0 0 0
0 0 0 0 0 0 0 0 0 0 0 0 0 0 0 0 0 0 0 0 0 0 0 0 0 0 0 0 0 0 0 0 0 0 0 0 0 0 0 0 0 0 0
0 0 0 0 0 0 0 0 0 0 0 0 0 0 0 0 0 0 0 0 0 0 0 0 0 0 0 0 0 0 0 0 0 0 0 0 0 0 0 0 0 0 0
0 0 0 0 0 0 0 0 0 0 0 0 0 0 0 0 0 0 0 0 0 0 0 0 0 0 0 0 0 0 0 0 0 0 0 0 0 0 0 0 0 0 0
0 0 0 0 0 0 0 0 0 0 0 0 0 0 0 0 0 0 0 0 0 0 0 0 0 0 0 0 0 0 0 0 0 0 0 0 0 0 0 0 0 0 0
0 0 0 0 0 0 0 0 0 0 0 0 0 0 0 0 0 0 0 0 0 0 0 0 0 0 0 0 0 0 0 0 0 0 0 0 0 0 0 0 0 0 0
0 0 0 0 0 0 0 0 0 0 0 0 0 0 0 0 0 -1 -1 -1 0 0 0 0 0 0 0 0 0 0 0 0 0 0 0 0 0 0 0 0 0 0 0
0 0 0 0 0 0 0 0 0 0 0 0 0 0 0 0 -1 0 -1 0 0 0 0 0 0 0 0 0 0 0 0 0 0 0 0 0 0 0 0 0 0 0 0
0 0 0 0 0 0 0 0 0 0 0 0 0 0 0 0 -1 -1 0 0 0 0 0 0 0 0 0 0 0 0 0 0 0 0 0 0 0 0 0 0 0 0 0
0 0 0 0 0 0 0 0 0 0 0 0 0 0 0 0 0 0 0 0 0 0 0 0 0 0 0 0 0 0 0 0 0 0 0 0 0 0 0 0 0 0 0
0 0 0 0 0 0 0 0 0 0 0 0 0 0 0 0 0 0 0 0 0 0 0 0 0 0 0 0 0 0 0 0 0 0 0 0 0 0 0 0 0 0 0
0 0 0 0 0 0 0 0 0 0 0 0 0 0 0 0 0 0 0 0 0 0 0 0 0 0 0 0 0 0 0 0 0 0 0 0 0 0 0 0 0 0 0
0 0 0 0 0 0 0 0 0 0 0 0 0 0 0 0 0 0 0 0 0 0 0 0 0 0 0 0 0 0 0 0 0 0 0 0 0 0 0 0 0 0 0
0 0 0 0 0 0 0 0 0 0 0 0 0 0 0 0 0 0 0 0 0 0 0 0 0 0 0 0 0 0 0 0 0 0 0 0 0 0 0 0 0 0 0
0 0 0 0 0 0 0 0 0 0 0 0 0 0 0 0 0 0 0 0 0 0 0 0 0 0 0 0 0 0 0 0 0 0 0 0 0 0 0 0 0 0 0
0 0 0 0 -3 0 0 0 0 0 0 0 0 0 0 0 0 0 0 0 0 0 0 0 0 0 0 0 0 0 0 0 0 0 0 0 0 0 0 0 0 0 0
Wind_Speed
25 23 23 22 20 19 19 18 16 15 14 15 14 13 13 14 13 12 12 11 11 12 12 13 13 13 13 14 15 16 16 18 21 21 18 20 25 26 25 24 24 28 29
24 24 23 22 21 20 19 18 17 17 16 16 15 14 13 12 13 13 12 11 11 12 14 14 14 13 14 16 16 17 16 17 18 20 18 21 23 24 24 24 25 26 28
24 24 24 24 23 22 20 18 18 17 17 16 15 15 14 12 12 11 11 11 12 13 14 14 14 13 15 17 17 18 18 17 16 17 18 20 22 24 24 22 24 27 26
27 27 26 24 22 21 21 20 19 18 17 16 16 15 13 12 11 12 11 11 14 14 14 12 14 15 16 16 16 18 18 16 15 16 17 20 20 19 20 24 22 26 28
28 27 26 24 20 19 19 19 18 17 18 17 16 15 15 13 14 13 14 13 13 12 11 11 12 12 14 15 16 17 16 15 15 16 17 19 20 19 20 23 21 21 25
27 25 24 22 20 17 15 16 17 19 17 14 15 17 14 16 16 13 10 11 8 8 8 8 9 10 12 13 14 16 17 16 15 15 17 18 19 18 19 22 23 21 23
25 20 16 16 16 16 14 16 16 16 21 19 17 18 15 17 14 9 7 5 7 7 6 7 9 10 10 12 14 16 17 17 16 16 17 19 18 18 18 19 22 19 22
21 21 14 14 11 11 13 15 14 14 17 22 16 16 13 15 7 4 4 6 7 7 6 7 8 10 8 11 13 14 15 15 16 16 17 18 20 19 17 18 17 16 20
19 20 16 13 9 7 10 13 17 17 16 15 13 14 12 11 5 5 5 7 6 8 8 8 9 9 9 9 11 12 13 14 15 16 17 19 21 22 20 16 18 15 18
16 17 15 12 8 8 10 12 12 13 12 10 9 10 6 7 5 5 6 8 9 10 9 9 8 8 9 9 9 10 11 12 14 15 16 17 19 20 21 21 19 18 16
14 13 13 12 10 7 7 5 5 7 6 4 6 7 6 8 6 2 3 7 5 6 6 7 8 7 8 8 9 10 11 11 12 13 15 16 18 18 19 19 20 19 19
13 12 11 11 11 9 7 5 4 4 5 6 6 5 7 7 6 6 1 3 3 4 5 6 7 8 8 8 9 10 10 11 11 13 14 16 18 18 19 18 17 18 19
13 10 9 9 10 9 8 4 1 1 3 5 6 7 7 8 8 7 6 2 4 6 6 6 7 8 8 8 9 11 10 10 11 12 14 16 17 18 19 20 19 16 18
12 9 7 7 8 8 8 7 2 3 4 4 5 2 3 4 4 5 5 4 6 6 6 6 7 8 9 10 10 10 10 10 11 12 14 16 17 17 19 20 20 19 20
12 10 8 6 5 7 6 4 2 3 3 3 3 1 2 3 2 2 2 3 4 5 5 6 6 7 8 8 9 10 11 11 12 13 15 15 17 18 19 20 20 21 22
12 10 7 6 3 5 6 6 4 6 5 3 5 4 4 4 2 1 2 3 3 3 4 4 5 6 7 7 8 9 10 11 12 13 14 16 18 19 19 19 21 22 22
9 5 4 4 4 3 5 5 5 6 5 4 3 3 4 4 3 2 2 3 3 3 7 6 6 6 6 7 7 8 10 11 13 13 14 16 18 19 19 20 22 24 24
9 8 4 2 3 3 4 5 5 5 7 8 5 4 3 3 3 3 3 4 5 9 10 7 7 6 7 7 7 9 10 11 12 13 15 17 18 20 20 22 24 25 26
7 7 10 5 3 3 4 4 7 8 8 8 9 8 5 4 4 6 6 9 7 9 11 8 8 8 8 8 9 9 10 11 13 13 15 17 19 22 23 23 24 25 26
9 10 8 6 5 4 4 5 7 8 9 9 9 8 8 8 9 9 10 10 9 11 12 9 9 9 9 9 9 10 11 12 13 15 16 18 20 21 23 23 24 25 26
9 8 6 5 4 4 4 5 6 8 8 8 8 7 7 8 8 8 7 9 12 9 11 10 10 10 9 10 11 11 12 13 13 14 16 17 20 21 23 23 24 26 26
10 9 8 7 6 5 5 5 6 6 7 8 8 6 5 8 8 8 7 9 11 11 9 9 10 10 10 10 11 11 12 11 14 16 17 18 20 21 23 23 24 25 26
13 12 11 10 9 8 7 6 7 7 7 7 6 5 4 6 7 8 8 8 9 10 10 9 9 11 12 12 12 11 12 13 14 14 16 18 20 21 22 24 24 26 27
13 13 12 11 10 9 8 8 8 8 8 8 7 6 5 5 7 6 6 7 8 9 9 10 10 9 9 11 12 13 13 13 13 15 17 19 19 21 22 23 26 27 28
13 12 12 11 10 10 9 9 9 9 9 9 8 7 6 6 8 6 6 7 8 9 10 10 11 9 9 11 12 13 13 13 14 15 17 18 19 21 23 24 26 28 28
12 12 12 11 11 10 9 9 9 8 8 8 6 6 6 6 5 5 5 6 7 9 9 10 10 10 9 10 10 11 12 13 15 16 17 18 19 21 23 25 25 27 29
Wind_Direction
310 307 303 301 296 292 286 282 276 275 274 278 277 276 278 282 286 293 300 308 318 322 331 331 331 329 330 327 319 318 325 333 332 342 359 5 2 6 7 8 3 358 357
310 309 304 299 294 289 283 278 275 274 276 276 274 277 284 286 288 291 297 300 311 317 327 325 326 325 324 316 314 315 324 333 342 343 3 5 5 6 6 5 2 3 2
309 304 303 298 292 284 278 273 272 273 275 275 274 275 279 286 291 295 300 307 313 319 320 319 318 322 315 310 315 316 324 341 353 352 358 7 4 3 4 7 6 3 5
308 303 299 293 286 281 275 270 269 268 268 267 271 274 278 284 290 295 302 307 314 318 318 321 312 311 308 313 319 321 329 346 4 4 4 2 2 5 8 5 7 8 4
310 302 296 292 289 283 276 272 267 264 264 264 266 273 283 288 295 294 299 304 313 319 323 323 321 321 315 322 321 327 337 351 357 1 2 2 3 3 2 2 5 11 9
325 309 300 291 286 283 278 276 271 267 262 256 260 270 280 287 293 289 295 305 316 324 319 331 333 324 335 342 344 347 350 350 358 3 3 3 3 1 5 1 359 10 6
341 330 322 300 287 282 277 276 276 269 264 266 264 268 280 287 288 282 301 305 314 318 313 312 313 322 339 350 349 354 2 7 7 11 13 7 3 3 3 3 358 12 9
345 347 332 319 290 274 272 271 272 269 262 260 263 267 278 286 287 291 308 305 311 309 319 320 324 322 341 357 1 7 10 11 11 20 20 16 9 5 6 6 9 21 16
352 351 347 341 318 287 279 279 276 273 269 265 269 269 270 279 288 275 278 289 306 309 323 321 325 341 357 8 6 11 11 12 15 19 16 9 7 8 4 15 7 5 360
3 360 8 19 6 325 303 299 290 266 267 271 278 276 274 283 277 269 278 285 294 297 316 319 323 341 360 13 19 21 17 12 13 10 10 6 2 6 9 15 16 6 2
19 28 26 35 38 37 30 318 287 270 269 274 277 276 273 278 289 280 290 291 309 318 331 334 335 0 7 18 19 18 11 11 12 10 8 3 358 359 1 6 10 12 6
13 23 35 36 43 44 57 60 294 271 268 269 272 270 267 278 295 301 326 343 351 345 341 352 14 18 15 21 7 3 9 10 9 5 1 356 351 351 351 355 4 8 11
357 9 30 42 33 47 69 66 2 321 263 260 262 262 271 281 294 310 321 38 63 26 39 40 30 20 16 6 4 356 360 5 6 359 353 347 343 345 345 350 356 1 3
341 349 4 25 41 32 42 77 13 269 263 272 282 297 308 310 313 333 345 25 50 40 45 28 10 12 3 353 353 357 359 357 354 350 347 343 341 341 343 344 346 353 351
334 330 330 344 25 42 21 14 336 312 293 294 305 49 34 332 317 354 16 16 24 32 27 7 8 0 353 353 352 353 344 345 345 344 342 342 339 339 341 345 345 344 344
330 323 317 303 345 40 43 30 5 302 295 76 89 75 13 12 60 35 342 348 5 16 354 347 345 345 348 349 347 343 343 340 339 341 336 337 337 337 338 342 343 341 339
355 22 345 302 303 39 36 23 341 349 3 93 84 53 49 62 64 46 329 337 331 333 318 322 320 322 328 330 337 344 337 333 334 338 335 333 334 335 336 338 338 336 334
50 66 51 25 307 359 43 42 5 0 349 342 7 38 52 68 37 9 354 328 306 307 311 308 309 315 323 329 335 335 333 332 334 334 332 331 331 333 334 332 333 332 330
42 80 99 79 34 36 33 357 321 319 329 330 340 346 359 3 348 333 320 306 294 301 306 303 306 309 315 321 325 330 331 331 329 331 331 329 327 326 327 330 330 330 330
48 73 82 81 83 53 2 341 332 326 325 325 323 323 326 323 315 313 312 309 297 302 308 304 307 309 312 315 320 323 324 324 325 323 325 325 326 326 328 329 330 330 329
53 63 61 62 59 45 32 360 345 336 332 330 326 324 321 319 319 315 307 311 308 302 303 305 307 309 311 312 316 317 318 319 322 326 327 328 328 329 329 330 331 330 330
59 64 66 70 56 40 25 12 1 353 346 341 338 335 337 329 324 318 306 311 312 312 308 307 310 312 314 314 315 315 320 319 321 322 324 327 328 328 329 330 330 330 329
77 77 73 69 62 57 41 28 16 9 5 360 358 357 351 342 331 321 320 318 322 321 318 317 315 314 317 318 320 318 317 318 321 325 327 328 328 329 329 328 329 328 328
73 72 67 65 59 48 36 24 17 12 9 5 2 1 358 351 344 337 331 332 334 334 331 326 322 322 326 328 327 328 328 328 329 328 328 327 327 329 330 329 327 326 326
62 59 57 56 50 41 33 27 21 15 8 3 8 14 17 10 353 350 344 340 340 339 337 334 332 332 330 328 328 327 329 331 331 332 332 332 330 329 328 328 327 327 327
55 53 50 50 46 45 40 33 26 25 27 28 41 43 48 44 31 25 15 7 354 346 345 340 336 334 337 337 337 337 336 334 332 332 332 331 330 330 331 329 330 329 328